Time,TemperatureF,DewpointF,PressureIn,WindDirection,WindDirectionDegrees,WindSpeedMPH,WindSpeedGustMPH,Humidity,HourlyPrecipIn,Conditions,Clouds,dailyrainin,SolarRadiationWatts/m^2,SoftwareType,DateUTC
2013-02-09 00:12:00,31.5,31.0,29.27,NE,53,0.0,0.0,98,0.00,,,0.00,0,weatherlink.com 1.10,2013-02-09 05:12:00,
2013-02-09 00:27:00,31.4,31.0,29.25,NE,53,0.0,0.0,98,0.00,,,0.00,0,weatherlink.com 1.10,2013-02-09 05:27:00,
2013-02-09 00:42:00,31.0,31.0,29.25,NE,53,0.0,0.0,98,0.00,,,0.00,0,weatherlink.com 1.10,2013-02-09 05:42:00,
2013-02-09 00:57:00,30.8,30.0,29.23,NE,53,0.0,0.0,98,0.00,,,0.00,0,weatherlink.com 1.10,2013-02-09 05:57:00,
2013-02-09 01:12:00,30.3,30.0,29.23,NE,53,0.0,0.0,98,0.00,,,0.00,0,weatherlink.com 1.10,2013-02-09 06:12:00,
2013-02-09 01:27:00,30.4,30.0,29.22,NE,53,0.0,0.0,98,0.00,,,0.00,0,weatherlink.com 1.10,2013-02-09 06:27:00,
2013-02-09 01:42:00,30.3,30.0,29.22,NE,53,0.0,0.0,98,0.00,,,0.00,0,weatherlink.com 1.10,2013-02-09 06:42:00,
2013-02-09 01:57:00,30.2,30.0,29.22,NE,53,0.0,0.0,98,0.00,,,0.00,0,weatherlink.com 1.10,2013-02-09 06:57:00,
2013-02-09 02:12:00,30.2,30.0,29.22,NE,53,0.0,0.0,98,0.00,,,0.00,0,weatherlink.com 1.10,2013-02-09 07:12:00,
2013-02-09 02:27:00,30.1,30.0,29.21,NE,53,0.0,0.0,98,0.00,,,0.00,0,weatherlink.com 1.10,2013-02-09 07:27:00,
2013-02-09 02:42:00,30.2,30.0,29.24,NE,53,0.0,0.0,98,0.00,,,0.00,0,weatherlink.com 1.10,2013-02-09 07:42:00,
2013-02-09 02:57:00,30.3,30.0,29.24,NE,53,0.0,0.0,98,0.00,,,0.00,0,weatherlink.com 1.10,2013-02-09 07:57:00,
2013-02-09 03:12:00,28.4,28.0,29.25,NE,53,0.0,0.0,98,0.00,,,0.00,0,weatherlink.com 1.10,2013-02-09 08:12:00,
2013-02-09 03:27:00,27.5,27.0,29.26,NE,53,0.0,0.0,98,0.00,,,0.00,0,weatherlink.com 1.10,2013-02-09 08:27:00,
2013-02-09 03:42:00,27.1,27.0,29.28,NE,53,0.0,0.0,98,0.00,,,0.00,0,weatherlink.com 1.10,2013-02-09 08:42:00,
2013-02-09 03:57:00,26.5,26.0,29.31,NE,53,0.0,0.0,97,0.00,,,0.00,0,weatherlink.com 1.10,2013-02-09 08:57:00,
2013-02-09 04:12:00,26.0,25.0,29.32,NE,53,0.0,0.0,97,0.00,,,0.00,0,weatherlink.com 1.10,2013-02-09 09:12:00,
2013-02-09 04:27:00,25.4,25.0,29.34,NE,53,0.0,0.0,97,0.00,,,0.00,0,weatherlink.com 1.10,2013-02-09 09:27:00,
2013-02-09 04:42:00,24.8,24.0,29.34,NE,53,0.0,0.0,97,0.00,,,0.00,0,weatherlink.com 1.10,2013-02-09 09:42:00,
2013-02-09 04:57:00,24.3,24.0,29.34,NE,53,0.0,0.0,97,0.00,,,0.00,0,weatherlink.com 1.10,2013-02-09 09:57:00,
2013-02-09 05:12:00,24.5,24.0,29.37,NE,53,0.0,0.0,97,0.00,,,0.00,0,weatherlink.com 1.10,2013-02-09 10:12:00,
2013-02-09 05:28:00,24.5,24.0,29.38,NE,53,0.0,0.0,97,0.00,,,0.00,0,weatherlink.com 1.10,2013-02-09 10:28:00,
2013-02-09 05:43:00,24.2,24.0,29.38,NE,53,0.0,0.0,97,0.00,,,0.00,0,weatherlink.com 1.10,2013-02-09 10:43:00,
2013-02-09 05:58:00,24.6,24.0,29.38,NE,53,0.0,0.0,97,0.00,,,0.00,0,weatherlink.com 1.10,2013-02-09 10:58:00,
2013-02-09 06:13:00,24.5,24.0,29.39,NE,53,0.0,0.0,97,0.00,,,0.00,0,weatherlink.com 1.10,2013-02-09 11:13:00,
2013-02-09 06:28:00,24.7,24.0,29.41,NE,53,0.0,0.0,97,0.00,,,0.00,0,weatherlink.com 1.10,2013-02-09 11:28:00,
2013-02-09 06:43:00,24.9,24.0,29.41,NE,53,0.0,0.0,97,0.00,,,0.00,0,weatherlink.com 1.10,2013-02-09 11:43:00,
2013-02-09 06:58:00,24.6,24.0,29.43,NE,52,0.0,0.0,97,0.00,,,0.00,0,weatherlink.com 1.10,2013-02-09 11:58:00,
2013-02-09 07:13:00,23.8,23.0,29.44,NE,53,0.0,0.0,97,0.00,,,0.00,9,weatherlink.com 1.10,2013-02-09 12:13:00,
2013-02-09 07:28:00,23.2,22.0,29.45,NE,53,0.0,0.0,96,0.00,,,0.00,12,weatherlink.com 1.10,2013-02-09 12:28:00,
2013-02-09 07:43:00,22.3,21.0,29.46,NE,53,0.0,0.0,96,0.00,,,0.00,16,weatherlink.com 1.10,2013-02-09 12:43:00,
2013-02-09 07:58:00,22.2,21.0,29.48,NE,52,0.0,0.0,96,0.00,,,0.00,14,weatherlink.com 1.10,2013-02-09 12:58:00,
2013-02-09 08:13:00,21.8,21.0,29.49,NE,53,0.0,0.0,96,0.00,,,0.00,18,weatherlink.com 1.10,2013-02-09 13:13:00,
2013-02-09 08:28:00,21.1,20.0,29.48,NE,53,0.0,0.0,96,0.00,,,0.00,18,weatherlink.com 1.10,2013-02-09 13:28:00,
2013-02-09 08:43:00,20.7,20.0,29.50,NE,53,0.0,0.0,95,0.00,,,0.00,21,weatherlink.com 1.10,2013-02-09 13:43:00,
2013-02-09 08:58:00,20.7,20.0,29.51,NE,53,0.0,0.0,95,0.00,,,0.00,35,weatherlink.com 1.10,2013-02-09 13:58:00,
2013-02-09 09:13:00,20.3,19.0,29.52,NE,53,0.0,0.0,95,0.00,,,0.00,26,weatherlink.com 1.10,2013-02-09 14:13:00,
2013-02-09 09:28:00,20.5,20.0,29.54,NE,52,0.0,0.0,96,0.00,,,0.00,62,weatherlink.com 1.10,2013-02-09 14:28:00,
2013-02-09 09:43:00,20.4,19.0,29.54,NE,53,0.0,0.0,95,0.00,,,0.00,47,weatherlink.com 1.10,2013-02-09 14:43:00,
2013-02-09 09:58:00,20.5,19.0,29.56,NE,53,0.0,0.0,95,0.00,,,0.00,62,weatherlink.com 1.10,2013-02-09 14:58:00,
2013-02-09 10:13:00,20.3,19.0,29.56,NE,52,0.0,0.0,95,0.00,,,0.00,51,weatherlink.com 1.10,2013-02-09 15:13:00,
2013-02-09 10:28:00,20.3,19.0,29.56,NE,53,0.0,0.0,95,0.00,,,0.00,65,weatherlink.com 1.10,2013-02-09 15:28:00,
2013-02-09 10:43:00,20.4,19.0,29.57,NE,53,0.0,0.0,95,0.00,,,0.00,88,weatherlink.com 1.10,2013-02-09 15:43:00,
2013-02-09 10:58:00,20.8,20.0,29.58,NE,53,0.0,0.0,95,0.00,,,0.00,70,weatherlink.com 1.10,2013-02-09 15:58:00,
2013-02-09 11:13:00,20.6,19.0,29.58,NE,53,0.0,0.0,95,0.00,,,0.00,83,weatherlink.com 1.10,2013-02-09 16:13:00,
2013-02-09 11:28:00,21.0,20.0,29.59,NE,52,0.0,0.0,96,0.00,,,0.00,49,weatherlink.com 1.10,2013-02-09 16:28:00,
2013-02-09 11:43:00,20.9,20.0,29.60,NE,53,0.0,0.0,96,0.00,,,0.00,63,weatherlink.com 1.10,2013-02-09 16:43:00,
2013-02-09 11:58:00,20.9,20.0,29.61,NE,53,0.0,0.0,96,0.00,,,0.00,74,weatherlink.com 1.10,2013-02-09 16:58:00,
2013-02-09 12:13:00,21.0,20.0,29.62,NE,53,0.0,0.0,96,0.00,,,0.00,88,weatherlink.com 1.10,2013-02-09 17:13:00,
2013-02-09 12:28:00,21.2,20.0,29.63,NE,53,0.0,0.0,96,0.00,,,0.00,79,weatherlink.com 1.10,2013-02-09 17:28:00,
2013-02-09 12:43:00,21.1,20.0,29.64,NE,52,0.0,0.0,96,0.00,,,0.00,156,weatherlink.com 1.10,2013-02-09 17:43:00,
2013-02-09 12:58:00,21.5,21.0,29.64,NE,53,0.0,0.0,96,0.00,,,0.00,95,weatherlink.com 1.10,2013-02-09 17:58:00,
2013-02-09 13:13:00,21.5,21.0,29.66,NE,53,0.0,0.0,96,0.00,,,0.00,70,weatherlink.com 1.10,2013-02-09 18:13:00,
2013-02-09 13:28:00,21.5,21.0,29.68,NE,52,0.0,0.0,96,0.00,,,0.00,114,weatherlink.com 1.10,2013-02-09 18:28:00,
2013-02-09 13:43:00,21.7,21.0,29.68,NE,53,0.0,0.0,96,0.00,,,0.00,109,weatherlink.com 1.10,2013-02-09 18:43:00,
2013-02-09 13:58:00,21.7,21.0,29.69,NE,53,0.0,0.0,96,0.00,,,0.00,91,weatherlink.com 1.10,2013-02-09 18:58:00,
2013-02-09 14:13:00,21.7,21.0,29.69,NE,53,0.0,0.0,96,0.00,,,0.00,88,weatherlink.com 1.10,2013-02-09 19:13:00,
2013-02-09 14:30:00,22.0,21.0,29.71,NE,53,0.0,0.0,96,0.00,,,0.00,35,weatherlink.com 1.10,2013-02-09 19:30:00,
2013-02-09 14:44:00,22.4,22.0,29.72,NE,53,0.0,0.0,96,0.00,,,0.00,44,weatherlink.com 1.10,2013-02-09 19:44:00,
2013-02-09 14:59:00,22.6,22.0,29.74,NE,53,0.0,0.0,96,0.00,,,0.00,25,weatherlink.com 1.10,2013-02-09 19:59:00,
2013-02-09 15:14:00,22.3,21.0,29.76,NE,53,0.0,0.0,96,0.00,,,0.00,33,weatherlink.com 1.10,2013-02-09 20:14:00,
2013-02-09 15:29:00,22.4,22.0,29.77,NE,52,0.0,0.0,96,0.00,,,0.00,46,weatherlink.com 1.10,2013-02-09 20:29:00,
2013-02-09 15:44:00,22.5,22.0,29.78,NE,53,0.0,0.0,96,0.00,,,0.00,33,weatherlink.com 1.10,2013-02-09 20:44:00,
2013-02-09 15:59:00,22.5,22.0,29.80,NE,53,0.0,0.0,96,0.00,,,0.00,21,weatherlink.com 1.10,2013-02-09 20:59:00,
2013-02-09 16:14:00,22.6,22.0,29.80,NE,53,0.0,0.0,96,0.00,,,0.00,9,weatherlink.com 1.10,2013-02-09 21:14:00,
2013-02-09 16:29:00,22.7,22.0,29.81,NE,53,0.0,0.0,96,0.00,,,0.00,5,weatherlink.com 1.10,2013-02-09 21:29:00,
2013-02-09 16:44:00,22.8,22.0,29.81,NE,53,0.0,0.0,96,0.00,,,0.00,0,weatherlink.com 1.10,2013-02-09 21:44:00,
2013-02-09 16:59:00,22.8,22.0,29.83,NE,53,0.0,0.0,95,0.00,,,0.00,0,weatherlink.com 1.10,2013-02-09 21:59:00,
2013-02-09 17:14:00,23.0,22.0,29.84,NE,53,0.0,0.0,96,0.00,,,0.00,0,weatherlink.com 1.10,2013-02-09 22:14:00,
2013-02-09 17:29:00,23.0,22.0,29.85,NE,53,0.0,0.0,96,0.00,,,0.00,0,weatherlink.com 1.10,2013-02-09 22:29:00,
2013-02-09 17:44:00,22.8,22.0,29.86,NE,53,0.0,0.0,95,0.00,,,0.00,0,weatherlink.com 1.10,2013-02-09 22:44:00,
2013-02-09 17:59:00,22.6,21.0,29.88,NE,53,0.0,0.0,95,0.00,,,0.00,0,weatherlink.com 1.10,2013-02-09 22:59:00,
2013-02-09 18:14:00,22.6,21.0,29.89,NE,53,0.0,0.0,95,0.00,,,0.00,0,weatherlink.com 1.10,2013-02-09 23:14:00,
2013-02-09 18:29:00,22.4,21.0,29.91,NE,53,0.0,0.0,95,0.00,,,0.00,0,weatherlink.com 1.10,2013-02-09 23:29:00,
2013-02-09 18:44:00,22.6,21.0,29.92,NE,53,0.0,0.0,95,0.00,,,0.00,0,weatherlink.com 1.10,2013-02-09 23:44:00,
2013-02-09 18:59:00,22.5,21.0,29.93,NE,53,0.0,0.0,95,0.00,,,0.00,0,weatherlink.com 1.10,2013-02-09 23:59:00,
2013-02-09 19:14:00,22.5,21.0,29.93,NE,53,0.0,0.0,95,0.00,,,0.00,0,weatherlink.com 1.10,2013-02-10 00:14:00,
2013-02-09 19:29:00,22.3,21.0,29.95,NE,53,0.0,0.0,95,0.00,,,0.00,0,weatherlink.com 1.10,2013-02-10 00:29:00,
2013-02-09 19:44:00,22.4,21.0,29.96,NE,53,0.0,0.0,95,0.00,,,0.00,0,weatherlink.com 1.10,2013-02-10 00:44:00,
2013-02-09 19:59:00,22.6,21.0,29.96,NE,53,0.0,0.0,95,0.00,,,0.00,0,weatherlink.com 1.10,2013-02-10 00:59:00,
2013-02-09 20:14:00,22.5,21.0,29.97,NE,53,0.0,0.0,94,0.00,,,0.00,0,weatherlink.com 1.10,2013-02-10 01:14:00,
2013-02-09 20:29:00,22.5,21.0,29.98,NE,53,0.0,0.0,94,0.00,,,0.00,0,weatherlink.com 1.10,2013-02-10 01:29:00,
2013-02-09 20:44:00,22.4,21.0,29.98,NE,53,0.0,0.0,94,0.00,,,0.00,0,weatherlink.com 1.10,2013-02-10 01:44:00,
2013-02-09 20:59:00,22.2,21.0,29.99,NE,53,0.0,0.0,94,0.00,,,0.00,0,weatherlink.com 1.10,2013-02-10 01:59:00,
2013-02-09 21:14:00,22.0,21.0,29.99,NE,53,0.0,0.0,94,0.00,,,0.00,0,weatherlink.com 1.10,2013-02-10 02:14:00,
2013-02-09 21:29:00,21.7,20.0,29.99,NE,53,0.0,0.0,94,0.00,,,0.00,0,weatherlink.com 1.10,2013-02-10 02:29:00,
2013-02-09 21:44:00,21.6,20.0,30.00,NE,52,0.0,0.0,93,0.00,,,0.00,0,weatherlink.com 1.10,2013-02-10 02:44:00,
2013-02-09 21:59:00,21.4,20.0,30.01,NE,52,0.0,0.0,93,0.00,,,0.00,0,weatherlink.com 1.10,2013-02-10 02:59:00,
2013-02-09 22:14:00,21.2,19.0,30.01,NE,53,0.0,0.0,92,0.00,,,0.00,0,weatherlink.com 1.10,2013-02-10 03:14:00,
2013-02-09 22:29:00,21.2,19.0,30.02,NE,53,0.0,0.0,92,0.00,,,0.00,0,weatherlink.com 1.10,2013-02-10 03:29:00,
2013-02-09 22:44:00,21.2,19.0,30.03,NE,53,0.0,0.0,92,0.00,,,0.00,0,weatherlink.com 1.10,2013-02-10 03:44:00,
2013-02-09 23:00:00,21.2,20.0,30.03,NE,53,0.0,0.0,93,0.00,,,0.00,0,weatherlink.com 1.10,2013-02-10 04:00:00,
2013-02-09 23:15:00,21.2,19.0,30.04,NE,53,0.0,0.0,92,0.00,,,0.00,0,weatherlink.com 1.10,2013-02-10 04:15:00,
2013-02-09 23:30:00,21.2,19.0,30.05,NE,53,0.0,0.0,92,0.00,,,0.00,0,weatherlink.com 1.10,2013-02-10 04:30:00,
2013-02-09 23:45:00,21.2,19.0,30.05,NE,53,0.0,0.0,92,0.00,,,0.00,0,weatherlink.com 1.10,2013-02-10 04:45:00,